星链-37183(STARLINK-37183)

导读

STARLINK-37183(NORAD编号68349)是美国SpaceX公司星链星座的第二代低轨通信卫星,旨在为全球提供高速低延迟宽带互联网服务,支持流媒体、视频通话等多种应用。作为星链星座扩容的组成部分,它运行在约550公里高度的近地轨道,采用了第二代星链的多项先进技术,包括亮度抑制改进与激光链路配置。截止2026年4月,星链星座在轨活跃卫星已突破1万颗,该卫星目前正常运行,为星链全球网络覆盖提供支撑,助力实现偏远地区网络接入,推动卫星互联网普及。

Basic Information
目录编号:
68349
目录名称:
STARLINK-37183
国际标识:
2026-059AE
轨道中心:
EARTH
卫星名称:
星链-37183
卫星全名:
星链-37183(STARLINK-37183)
卫星状态:
在轨 (已飞行80 天)
发射日期:
2026-03-22 UTC
国别 :
美国 (US)
星等 :
--
Orbit Information
数据来源 国际轨道数据 AOE轨道数据
星历时间 2026-06-10T09:31:24+0800
12小时前
查看轨道信息
2026-06-04T07:00:00+0800
6天前
查看轨道信息
半长轴 6853.321km 6853.433km
偏心率 0.0001235 0.0001132
轨道倾角 53.159° 53.158°
近地点辐角 83.882° 59.678°
升交点赤经 278.821° 307.182°
平近点角 276.232° 130.261°
近地点 474.337km 474.52km
远地点 476.031km 476.072km
周期 94.105分钟 94.107分钟
每日圈数 15.302105 15.301732
Detailed Information
固有亮度:
5
最大亮度:
2.5
卫星平台:
Starlink V1.0
覆盖范围:
全球
运营商:
太空探索技术公司
运营商所在国:
美国
制造商(研发单位):
太空探索技术公司
制造商所在国:
美国
使用方式:
暂无
Satellite Introduction
Starlink 计划是 SpaceX 推出的全球卫星互联网项目,通过发射低轨道卫星,为全球尤其是偏远地区提供高速、低延迟的互联网服务。自 2019 年起,Starlink 已部署数千颗卫星,旨在缩小全球数字鸿沟,推动互联网普及。该项目还为军事、航空等行业提供通信支持,带来广泛经济效益。
2D Orbit Map
3D Orbit Map
Orbit Altitude Analysis Chart
Orbit Inclination Analysis Chart
Orbit Comprehensive Analysis Chart
View Comprehensive Chart